Regional Weather Roundup
Issued by NWS

Home | Current Version | Previous Version | Text Only | Print | Product List | Glossary Off
Versions: 1 2 3 4 5 6 7 8 9 10 11 12 13 14 15 16 17 18 19 20 21 22 23 24 25 26 27 28 29 30 31 32 33 34 35 36 37 38 39 40 41 42 43 44 45 46 47 48 49 50

000
ASUS43 KTOP 031908
RWRKS

WEATHER ROUNDUP FOR KANSAS
NATIONAL WEATHER SERVICE GOODLAND KS
200 PM CDT TUE MAY 03 2016

NOTE:  "FAIR" INDICATES FEW OR NO CLOUDS BELOW 12,000 FEET WITH NO
SIGNIFICANT WEATHER AND/OR OBSTRUCTIONS TO VISIBILITY.

KSZ001>006-013>018-027>032-041>047-032000-
NORTHWEST KANSAS

CITY           SKY/WX    TMP DP  RH WIND       PRES   REMARKS
GOODLAND       MOSUNNY   62  39  42 N15G24    30.11F
HAYS           MOSUNNY   64  43  45 NW9G16    30.06F
HILL CITY      PTSUNNY   64  43  46 NW9       30.08F
RUSSELL        MOSUNNY   68  43  40 MISG      30.03F
$$

KSZ061>065-074>080-084>089-032000-
SOUTHWEST KANSAS

CITY           SKY/WX    TMP DP  RH WIND       PRES   REMARKS
DODGE CITY     MOSUNNY   64  39  39 NW7G17    30.07S
ELKHART          N/A     64  38  38 NW10        N/A
GARDEN CITY    MOSUNNY   63  39  41 N10       30.08F
GREAT BEND     SUNNY     66  43  42 NW10      30.04F
LIBERAL        MOSUNNY   64  41  42 N20       30.09S
PRATT          MOSUNNY   65  40  40 SW14      30.05F
$$

KSZ066>073-081>083-090>101-032000-
SOUTHEAST KANSAS

CITY           SKY/WX    TMP DP  RH WIND       PRES   REMARKS
CHANUTE        MOSUNNY   66  43  43 CALM      30.06F
COFFEYVILLE    PTSUNNY   68  45  43 MISG      30.07F
HUTCHINSON     PTSUNNY   72  38  29 SW9       30.03F
MEDICINE LODGE   N/A     70  41  34 MISG      30.03F
NEWTON         MOSUNNY   68  41  37 W9G20     30.06F
PARSONS        PTSUNNY   67  45  45 NW3       30.08F
WICHITA INTL   MOSUNNY   70  46  42 SW15      30.04F
WICHITA JABRA  SUNNY     69  41  36 SW15      30.04F
WICHITA MCCONL MOSUNNY   69  44  40 SW10      30.04F
WINFIELD       MOSUNNY   69  45  41 S7        30.28R
$$

KSZ007>012-019>026-033>040-048>060-102>105-032000-
NORTHEAST KANSAS

CITY           SKY/WX    TMP DP  RH WIND       PRES   REMARKS
CONCORDIA      SUNNY     68  39  34 VRB3      30.03F
EMPORIA        SUNNY     68  42  38 S9        30.04F
LAWRENCE       MOSUNNY   68  42  38 W6        30.04F
MANHATTAN      SUNNY     70  41  34 MISG      30.02F
MARYSVILLE     SUNNY     68  45  42 W6        30.03F
OLATHE IND     MOSUNNY   66  40  38 VRB5      30.05F
OLATHE EXE     MOSUNNY   63  38  39 NW6       30.04F
SALINA         SUNNY     71  47  42 MISG      30.02F
TOPEKA BILLARD SUNNY     67  40  37 CALM      30.03F
TOPEKA FORBES  MOSUNNY   69  43  38 VRB3      30.03F
$$



USA.gov is the U.S. government's official web portal to all federal, state and local government web resources and services.